UAL679 KLAX-KLAS

Flight info

Callsign UAL679
Flight time 0h 47m
Altitude 29000
Route ORCKA5 MISEN RNDRZ4
Aircraft B739/M-SDE2E3FGHIRWXY/LB1

Departure

Time 2026-05-06 02:58
Airport Los Angeles International Airport (KLAX)

Arrival

Time 2026-05-06 03:45
Airport Harry Reid International Airport (KLAS)
Time Latitude Longitude Altitude Speed Heading
2026-05-06 02:32 33.94168 -118.39779 123 ft 0 kts 83°
2026-05-06 02:45 33.94168 -118.39781 123 ft 2 kts 83°
2026-05-06 02:46 33.94165 -118.39806 123 ft 3 kts 83°
2026-05-06 02:46 33.94167 -118.39832 125 ft 4 kts 142°
2026-05-06 02:46 33.94177 -118.39838 121 ft 5 kts 173°
2026-05-06 02:46 33.94152 -118.39834 121 ft 3 kts 173°
2026-05-06 02:47 33.94147 -118.39833 121 ft 0 kts 173°
2026-05-06 02:52 33.94145 -118.39833 121 ft 2 kts 173°
2026-05-06 02:53 33.94111 -118.39828 122 ft 5 kts 173°
2026-05-06 02:53 33.94070 -118.39824 124 ft 9 kts 175°
2026-05-06 02:53 33.94004 -118.39816 122 ft 2 kts 171°
2026-05-06 02:53 33.93943 -118.39801 122 ft 10 kts 152°
2026-05-06 02:54 33.93930 -118.39723 123 ft 12 kts 61°
2026-05-06 02:54 33.93936 -118.39587 124 ft 21 kts 93°
2026-05-06 02:54 33.93940 -118.39408 120 ft 21 kts 84°
2026-05-06 02:54 33.93950 -118.39299 125 ft 10 kts 83°
2026-05-06 02:55 33.93957 -118.39218 123 ft 10 kts 84°
2026-05-06 02:55 33.93965 -118.39124 122 ft 20 kts 84°
2026-05-06 02:55 33.93991 -118.38897 125 ft 26 kts 82°
2026-05-06 02:55 33.94013 -118.38691 121 ft 24 kts 83°
2026-05-06 02:56 33.94031 -118.38497 125 ft 23 kts 84°
2026-05-06 02:56 33.94053 -118.38311 124 ft 22 kts 82°
2026-05-06 02:56 33.94072 -118.38130 125 ft 21 kts 83°
2026-05-06 02:56 33.94078 -118.38062 125 ft 4 kts 91°
2026-05-06 02:57 33.94057 -118.38037 123 ft 7 kts 141°
2026-05-06 02:57 33.94000 -118.38022 122 ft 9 kts 200°
2026-05-06 02:57 33.93982 -118.38089 123 ft 9 kts 266°
2026-05-06 02:57 33.93964 -118.38269 122 ft 57 kts 259°
2026-05-06 02:58 33.93877 -118.39093 125 ft 137 kts 264°
2026-05-06 02:58 33.93721 -118.40500 143 ft 196 kts 259°
2026-05-06 02:58 33.93519 -118.42227 727 ft 215 kts 255°
2026-05-06 02:58 33.93193 -118.44012 1713 ft 218 kts 257°
2026-05-06 02:59 33.93012 -118.45772 2717 ft 216 kts 261°
2026-05-06 02:59 33.92810 -118.47729 2589 ft 259 kts 262°
2026-05-06 02:59 33.92577 -118.49971 2660 ft 267 kts 262°
2026-05-06 02:59 33.92503 -118.52174 2610 ft 263 kts 270°
2026-05-06 03:00 33.92591 -118.54354 2606 ft 258 kts 270°
2026-05-06 03:00 33.92628 -118.56510 2593 ft 258 kts 262°
2026-05-06 03:00 33.92063 -118.58521 2599 ft 255 kts 233°
2026-05-06 03:00 33.90749 -118.59929 2639 ft 257 kts 207°
2026-05-06 03:01 33.89103 -118.60816 3271 ft 260 kts 202°
2026-05-06 03:01 33.87436 -118.61627 4262 ft 258 kts 201°
2026-05-06 03:01 33.85759 -118.62431 5134 ft 261 kts 201°
2026-05-06 03:01 33.84058 -118.63241 5967 ft 265 kts 201°
2026-05-06 03:02 33.82330 -118.64062 6779 ft 268 kts 201°
2026-05-06 03:02 33.80552 -118.64789 7564 ft 273 kts 188°
2026-05-06 03:02 33.78679 -118.64460 8310 ft 279 kts 154°
2026-05-06 03:02 33.77232 -118.62908 9065 ft 287 kts 122°
2026-05-06 03:03 33.76667 -118.60589 9802 ft 297 kts 91°
2026-05-06 03:03 33.77076 -118.58120 10428 ft 310 kts 75°
2026-05-06 03:03 33.77868 -118.55606 10601 ft 335 kts 66°
2026-05-06 03:03 33.79062 -118.53092 10769 ft 358 kts 53°
2026-05-06 03:04 33.81001 -118.51114 11002 ft 376 kts 27°
2026-05-06 03:04 33.83429 -118.49881 11546 ft 382 kts 22°
2026-05-06 03:04 33.85863 -118.48569 12175 ft 385 kts 26°
2026-05-06 03:04 33.88213 -118.47093 12783 ft 387 kts 29°
2026-05-06 03:05 33.90601 -118.45480 13380 ft 391 kts 32°
2026-05-06 03:05 33.92748 -118.43530 13929 ft 394 kts 43°
2026-05-06 03:05 33.94614 -118.41107 14497 ft 395 kts 54°
2026-05-06 03:05 33.96175 -118.38372 15055 ft 398 kts 58°
2026-05-06 03:06 33.97702 -118.35574 15580 ft 401 kts 57°
2026-05-06 03:06 33.99261 -118.32764 16094 ft 404 kts 57°
2026-05-06 03:06 34.00849 -118.29944 16600 ft 407 kts 57°
2026-05-06 03:06 34.02454 -118.27114 17093 ft 410 kts 57°
2026-05-06 03:07 34.04073 -118.24263 17571 ft 413 kts 57°
2026-05-06 03:07 34.05704 -118.21389 18036 ft 416 kts 57°
2026-05-06 03:07 34.07340 -118.18501 18492 ft 419 kts 57°
2026-05-06 03:07 34.08992 -118.15581 18934 ft 422 kts 57°
2026-05-06 03:08 34.10649 -118.12649 19362 ft 424 kts 57°
2026-05-06 03:08 34.12318 -118.09694 19780 ft 427 kts 57°
2026-05-06 03:08 34.13997 -118.06718 20187 ft 430 kts 57°
2026-05-06 03:08 34.15660 -118.03768 20581 ft 432 kts 57°
2026-05-06 03:09 34.17378 -118.00717 20972 ft 435 kts 57°
2026-05-06 03:09 34.19061 -117.97726 21353 ft 437 kts 57°
2026-05-06 03:09 34.20772 -117.94681 21719 ft 440 kts 57°
2026-05-06 03:09 34.22495 -117.91614 22081 ft 442 kts 57°
2026-05-06 03:10 34.24227 -117.88528 22401 ft 444 kts 57°
2026-05-06 03:10 34.25965 -117.85428 22733 ft 446 kts 57°
2026-05-06 03:10 34.27709 -117.82314 23073 ft 449 kts 57°
2026-05-06 03:10 34.29463 -117.79181 23396 ft 451 kts 57°
2026-05-06 03:11 34.31224 -117.76030 23716 ft 452 kts 57°
2026-05-06 03:11 34.32990 -117.72870 24014 ft 454 kts 57°
2026-05-06 03:11 34.34767 -117.69687 24297 ft 456 kts 57°
2026-05-06 03:11 34.36573 -117.66518 24562 ft 459 kts 56°
2026-05-06 03:12 34.38436 -117.63381 24839 ft 460 kts 54°
2026-05-06 03:12 34.40336 -117.60231 24864 ft 466 kts 54°
2026-05-06 03:12 34.41602 -117.58141 24812 ft 459 kts 54°
2026-05-06 03:12 34.44070 -117.54055 24786 ft 441 kts 54°
2026-05-06 03:13 34.45259 -117.52077 24791 ft 438 kts 55°
2026-05-06 03:13 34.47047 -117.49090 24800 ft 438 kts 55°
2026-05-06 03:13 34.48835 -117.46091 24808 ft 439 kts 55°
2026-05-06 03:13 34.50622 -117.43084 24806 ft 440 kts 55°
2026-05-06 03:14 34.52415 -117.40064 24805 ft 441 kts 55°
2026-05-06 03:14 34.54209 -117.37040 24803 ft 441 kts 55°
2026-05-06 03:14 34.55999 -117.34020 24800 ft 441 kts 55°
2026-05-06 03:14 34.57788 -117.30999 24797 ft 440 kts 55°
2026-05-06 03:15 34.59551 -117.28019 24802 ft 440 kts 55°
2026-05-06 03:15 34.61358 -117.24964 24795 ft 439 kts 55°
2026-05-06 03:15 34.63139 -117.21951 24795 ft 439 kts 55°
2026-05-06 03:15 34.64893 -117.18980 24800 ft 438 kts 55°
2026-05-06 03:16 34.66687 -117.15937 24864 ft 437 kts 55°
2026-05-06 03:16 34.68459 -117.12932 24895 ft 438 kts 55°
2026-05-06 03:16 34.70216 -117.09948 24894 ft 439 kts 55°
2026-05-06 03:16 34.71987 -117.06938 24889 ft 438 kts 55°
2026-05-06 03:17 34.73758 -117.03925 24899 ft 437 kts 55°
2026-05-06 03:17 34.75527 -117.00913 24900 ft 437 kts 55°
2026-05-06 03:17 34.77296 -116.97900 24897 ft 437 kts 55°
2026-05-06 03:17 34.79060 -116.94891 24902 ft 437 kts 55°
2026-05-06 03:18 34.80827 -116.91874 24896 ft 437 kts 55°
2026-05-06 03:18 34.82596 -116.88853 24898 ft 437 kts 55°
2026-05-06 03:18 34.84358 -116.85839 24900 ft 437 kts 55°
2026-05-06 03:18 34.86122 -116.82820 24899 ft 438 kts 55°
2026-05-06 03:19 34.87885 -116.79801 24897 ft 438 kts 55°
2026-05-06 03:19 34.89653 -116.76771 24899 ft 438 kts 55°
2026-05-06 03:19 34.91418 -116.73742 24900 ft 438 kts 56°
2026-05-06 03:19 34.93151 -116.70746 24899 ft 438 kts 56°
2026-05-06 03:20 34.96604 -116.64625 24898 ft 438 kts 56°
2026-05-06 03:20 34.98324 -116.61558 24899 ft 438 kts 56°
2026-05-06 03:20 35.00045 -116.58492 24898 ft 438 kts 56°
2026-05-06 03:21 35.01769 -116.55422 24900 ft 438 kts 56°
2026-05-06 03:21 35.03490 -116.52360 24897 ft 438 kts 56°
2026-05-06 03:21 35.05213 -116.49293 24896 ft 438 kts 56°
2026-05-06 03:21 35.06938 -116.46221 24899 ft 438 kts 56°
2026-05-06 03:22 35.08658 -116.43156 24897 ft 438 kts 56°
2026-05-06 03:22 35.10387 -116.40103 24900 ft 438 kts 54°
2026-05-06 03:22 35.12357 -116.37261 24900 ft 438 kts 47°
2026-05-06 03:22 35.14490 -116.34598 24901 ft 438 kts 45°
2026-05-06 03:23 35.16654 -116.31972 24899 ft 438 kts 46°
2026-05-06 03:23 35.18794 -116.29313 24902 ft 438 kts 46°
2026-05-06 03:23 35.20899 -116.26623 24886 ft 433 kts 47°
2026-05-06 03:23 35.22942 -116.23968 24895 ft 428 kts 48°
2026-05-06 03:24 35.24943 -116.21267 24340 ft 429 kts 49°
2026-05-06 03:24 35.26908 -116.18545 23845 ft 425 kts 49°
2026-05-06 03:24 35.28853 -116.15851 23298 ft 419 kts 49°
2026-05-06 03:24 35.30770 -116.13212 22772 ft 409 kts 49°
2026-05-06 03:25 35.32645 -116.10640 22266 ft 400 kts 49°
2026-05-06 03:25 35.34478 -116.08125 21771 ft 391 kts 49°
2026-05-06 03:25 35.36272 -116.05663 21291 ft 384 kts 49°
2026-05-06 03:25 35.38033 -116.03242 20817 ft 376 kts 49°
2026-05-06 03:26 35.39739 -116.00896 20353 ft 369 kts 49°
2026-05-06 03:26 35.41433 -115.98564 19898 ft 363 kts 49°
2026-05-06 03:26 35.43100 -115.96267 19453 ft 358 kts 49°
2026-05-06 03:26 35.44753 -115.93987 19009 ft 357 kts 49°
2026-05-06 03:27 35.46418 -115.91689 18576 ft 365 kts 49°
2026-05-06 03:27 35.48126 -115.89329 18117 ft 374 kts 49°
2026-05-06 03:27 35.49842 -115.86958 17624 ft 369 kts 49°
2026-05-06 03:27 35.51545 -115.84603 17164 ft 368 kts 49°
2026-05-06 03:28 35.53243 -115.82253 16750 ft 366 kts 49°
2026-05-06 03:28 35.54926 -115.79924 16360 ft 363 kts 49°
2026-05-06 03:28 35.56580 -115.77634 16215 ft 353 kts 49°
2026-05-06 03:28 35.58189 -115.75404 16057 ft 344 kts 49°
2026-05-06 03:29 35.59741 -115.73260 15894 ft 336 kts 49°
2026-05-06 03:29 35.61297 -115.71153 15733 ft 329 kts 49°
2026-05-06 03:29 35.62831 -115.69092 15576 ft 325 kts 49°
2026-05-06 03:29 35.64358 -115.67037 15419 ft 327 kts 49°
2026-05-06 03:30 35.65901 -115.64955 15272 ft 331 kts 49°
2026-05-06 03:30 35.67460 -115.62849 15093 ft 334 kts 49°
2026-05-06 03:30 35.69020 -115.60740 14927 ft 332 kts 49°
2026-05-06 03:30 35.70568 -115.58645 14751 ft 331 kts 49°
2026-05-06 03:31 35.72115 -115.56553 14583 ft 329 kts 47°
2026-05-06 03:31 35.73849 -115.54735 14394 ft 329 kts 32°
2026-05-06 03:31 35.75826 -115.53342 14257 ft 327 kts 29°
2026-05-06 03:31 35.77822 -115.51993 14075 ft 326 kts 29°
2026-05-06 03:32 35.79805 -115.50646 13921 ft 325 kts 29°
2026-05-06 03:32 35.81784 -115.49286 13754 ft 325 kts 30°
2026-05-06 03:32 35.83753 -115.47919 13583 ft 324 kts 30°
2026-05-06 03:32 35.85690 -115.46565 13419 ft 324 kts 30°
2026-05-06 03:33 35.87646 -115.45192 13252 ft 323 kts 30°
2026-05-06 03:33 35.89598 -115.43821 13082 ft 323 kts 30°
2026-05-06 03:33 35.91558 -115.42445 12816 ft 326 kts 30°
2026-05-06 03:33 35.93547 -115.41057 12440 ft 329 kts 30°
2026-05-06 03:34 35.95539 -115.39669 12064 ft 328 kts 30°
2026-05-06 03:34 35.97525 -115.38283 11690 ft 328 kts 30°
2026-05-06 03:34 35.99458 -115.36815 11301 ft 326 kts 41°
2026-05-06 03:34 36.00841 -115.34639 10951 ft 321 kts 67°
2026-05-06 03:35 36.01434 -115.32067 10730 ft 305 kts 88°
2026-05-06 03:35 36.01410 -115.29507 10530 ft 294 kts 96°
2026-05-06 03:35 36.01272 -115.26986 10333 ft 296 kts 96°
2026-05-06 03:35 36.01121 -115.24453 10123 ft 295 kts 96°
2026-05-06 03:36 36.00977 -115.21934 9901 ft 291 kts 96°
2026-05-06 03:36 36.00845 -115.19463 9695 ft 286 kts 96°
2026-05-06 03:36 36.00719 -115.17027 9491 ft 282 kts 96°
2026-05-06 03:36 36.00598 -115.14633 9291 ft 277 kts 96°
2026-05-06 03:37 36.00479 -115.12274 9096 ft 273 kts 96°
2026-05-06 03:37 36.00361 -115.09954 8875 ft 269 kts 96°
2026-05-06 03:37 36.00244 -115.07655 8637 ft 267 kts 96°
2026-05-06 03:37 36.00128 -115.05386 8389 ft 262 kts 96°
2026-05-06 03:38 36.00015 -115.03173 8163 ft 256 kts 96°
2026-05-06 03:38 35.99909 -115.00989 7898 ft 256 kts 94°
2026-05-06 03:38 35.99884 -114.98796 7598 ft 253 kts 92°
2026-05-06 03:38 35.99882 -114.96661 7336 ft 243 kts 92°
2026-05-06 03:39 35.99881 -114.94610 7030 ft 234 kts 93°
2026-05-06 03:39 36.00102 -114.92658 6685 ft 230 kts 66°
2026-05-06 03:39 36.01094 -114.91171 6426 ft 222 kts 38°
2026-05-06 03:39 36.02371 -114.90145 6155 ft 217 kts 28°
2026-05-06 03:40 36.03779 -114.89685 5873 ft 205 kts 353°
2026-05-06 03:40 36.05097 -114.90135 5665 ft 199 kts 332°
2026-05-06 03:40 36.06316 -114.90942 5424 ft 198 kts 324°
2026-05-06 03:40 36.07143 -114.92181 5259 ft 178 kts 279°
2026-05-06 03:41 36.07295 -114.93630 5042 ft 161 kts 271°
2026-05-06 03:41 36.07367 -114.94965 4821 ft 152 kts 268°
2026-05-06 03:41 36.07387 -114.96266 4635 ft 152 kts 266°
2026-05-06 03:41 36.07391 -114.97564 4447 ft 150 kts 266°
2026-05-06 03:42 36.07390 -114.98852 4248 ft 150 kts 265°
2026-05-06 03:42 36.07387 -115.00138 4046 ft 149 kts 265°
2026-05-06 03:42 36.07384 -115.01415 3845 ft 148 kts 265°
2026-05-06 03:42 36.07381 -115.02690 3657 ft 148 kts 266°
2026-05-06 03:43 36.07379 -115.03957 3460 ft 148 kts 265°
2026-05-06 03:43 36.07377 -115.05220 3264 ft 146 kts 265°
2026-05-06 03:43 36.07374 -115.06480 3067 ft 147 kts 265°
2026-05-06 03:43 36.07372 -115.07735 2874 ft 147 kts 265°
2026-05-06 03:44 36.07371 -115.08984 2690 ft 144 kts 266°
2026-05-06 03:44 36.07368 -115.10221 2494 ft 146 kts 266°
2026-05-06 03:44 36.07368 -115.11455 2307 ft 146 kts 267°
2026-05-06 03:44 36.07367 -115.12713 2110 ft 146 kts 268°
2026-05-06 03:45 36.07364 -115.13885 2079 ft 119 kts 270°
2026-05-06 03:45 36.07364 -115.14725 2092 ft 76 kts 270°
2026-05-06 03:45 36.07368 -115.15104 2097 ft 39 kts 272°
2026-05-06 03:45 36.07407 -115.15351 2105 ft 13 kts 290°
2026-05-06 03:46 36.07446 -115.15451 2104 ft 13 kts 297°
2026-05-06 03:46 36.07501 -115.15568 2108 ft 17 kts 307°
2026-05-06 03:46 36.07578 -115.15672 2116 ft 16 kts 315°
2026-05-06 03:46 36.07671 -115.15784 2120 ft 24 kts 321°
2026-05-06 03:47 36.07807 -115.15816 2112 ft 0 kts 31°
2026-05-06 03:47 36.07813 -115.15777 2109 ft 11 kts 85°
2026-05-06 03:47 36.07810 -115.15667 2105 ft 15 kts 91°
2026-05-06 03:47 36.07806 -115.15508 2102 ft 22 kts 91°
2026-05-06 03:48 36.07804 -115.15325 2101 ft 20 kts 90°
2026-05-06 03:48 36.07804 -115.15109 2099 ft 32 kts 91°
2026-05-06 03:48 36.07790 -115.14882 2098 ft 24 kts 95°
2026-05-06 03:48 36.07776 -115.14686 2097 ft 23 kts 94°
2026-05-06 03:49 36.07762 -115.14452 2096 ft 29 kts 96°
2026-05-06 03:49 36.07770 -115.14256 2094 ft 17 kts 45°
2026-05-06 03:49 36.07885 -115.14238 2094 ft 17 kts
2026-05-06 03:49 36.08024 -115.14238 2094 ft 25 kts 359°
2026-05-06 03:50 36.08207 -115.14233 2094 ft 26 kts 22°
2026-05-06 03:50 36.08325 -115.14116 2091 ft 15 kts 45°
2026-05-06 03:50 36.08409 -115.14005 2091 ft 20 kts 64°
2026-05-06 03:50 36.08406 -115.13943 2091 ft 7 kts 116°
2026-05-06 03:51 36.08358 -115.13922 2091 ft 0 kts 178°
2026-05-06 03:51 36.08349 -115.13922 2091 ft 1 kts 179°
2026-05-06 03:51 36.08346 -115.13922 2091 ft 0 kts 179°